Погода в Кольцово

Россия / Новосибирская область     54°56′23″N   83°11′21″E
темп.,
°C
ветер,
м/с
пор.,
м/с
влажн.,
%
обл.,
%
осадки,
мм/ч
давл.,
гПа
погр.,
м
6 марта, сб
сб601:00−5юз101792100 2.6 10171049
04:00−6юз101794100 1.3 1017968
07:00−7ююз91792100 2.6 1017820
10:00−7ююз101985100 0.2 1015787
13:00−6ююз111884100 0.2 1013895
16:00−5юз111794100 0.7 10121013
19:00−4юз101792100 2.0 10111026
22:00−4юз91789100 0.2 1011836
7 марта, вс
вс701:00−3юз81691100 0.4 1012871
04:00−5зюз51288100 1.3 1012708
07:00−11зюз489297 1.3 1015155
10:00−11юз499043 0.0 1017285
13:00−8зюз588370 0.0 1018416
16:00−6зюз588067 0.0 1019604
19:00−10юз238833 0.0 102122
22:00−14ююз22838 0.0 102221
8 марта, пн
пн801:00−14ююв227952 0.0 102220
04:00−10ююв3695100 0.0 1020136
07:00−6ююв51193100 0.1 1018310
10:00−6ю71390100 0.0 1015427
13:00−3ю81485100 0.0 1012569
16:00−1ю91581100 0.0 1008742
19:00−2ююз91781100 0.0 1006913
22:00−2юз91793100 0.2 10081136
9 марта, вт
вт901:00−10зюз7159094 0.5 1013601
04:00−12юз61394100 0.1 1018496
07:00−13юз61294100 0.1 1021419
10:00−14юз61194100 0.0 1025387
13:00−12юз589092 0.0 1026410
16:00−9ююз478622 0.0 1026411
19:00−11ю469137 0.0 1025114
22:00−12ю499183 0.0 1023151
10 марта, ср
ср1001:00−14ю479168 0.0 1021124
04:00−10ю5109575 0.1 1018268
07:00−9ююз399687 0.4 1016232
10:00−5юз4995100 0.1 1015393
13:00−2юз479099 0.1 1014632
16:00−1юз3590100 0.1 1013659
19:00−3юв1292100 0.1 101121
22:00−2вюв4896100 0.0 1008263